Time,TemperatureF,DewpointF,PressureIn,WindDirection,WindDirectionDegrees,WindSpeedMPH,WindSpeedGustMPH,Humidity,HourlyPrecipIn,Conditions,Clouds,dailyrainin,SoftwareType,DateUTC
2013-07-19 00:01:00,52.9,47.9,29.88,SE,136,13.0,14.0,83,0.00,,BKN001,0.02,VWS V14.00,2013-07-19 06:01:00,
2013-07-19 00:06:00,53.3,48.0,29.87,SE,127,10.0,13.0,82,0.00,,BKN001,0.00,VWS V14.00,2013-07-19 06:06:00,
2013-07-19 00:11:00,53.6,47.9,29.87,SE,135,13.0,14.0,81,0.00,,BKN001,0.00,VWS V14.00,2013-07-19 06:11:00,
2013-07-19 00:16:00,53.8,47.8,29.87,SE,136,13.0,16.0,80,0.00,,BKN001,0.00,VWS V14.00,2013-07-19 06:16:00,
2013-07-19 00:21:00,54.4,48.0,29.87,ESE,121,11.0,17.0,79,0.00,,BKN001,0.00,VWS V14.00,2013-07-19 06:21:00,
2013-07-19 00:26:00,54.1,47.7,29.87,SE,143,14.0,17.0,79,0.00,,BKN001,0.00,VWS V14.00,2013-07-19 06:26:00,
2013-07-19 00:31:00,54.2,47.8,29.87,SE,141,12.0,17.0,79,0.00,,BKN001,0.00,VWS V14.00,2013-07-19 06:31:00,
2013-07-19 00:36:00,53.5,47.5,29.87,SSE,150,12.0,15.0,80,0.00,,BKN001,0.00,VWS V14.00,2013-07-19 06:36:00,
2013-07-19 00:41:00,53.6,47.3,29.87,SE,138,9.0,16.0,79,0.00,,BKN001,0.00,VWS V14.00,2013-07-19 06:41:00,
2013-07-19 00:46:00,53.9,47.5,29.87,SE,143,12.0,16.0,79,0.00,,BKN001,0.00,VWS V14.00,2013-07-19 06:46:00,
2013-07-19 00:51:00,53.8,47.5,29.87,SE,134,10.0,16.0,79,0.00,,BKN001,0.00,VWS V14.00,2013-07-19 06:51:00,
2013-07-19 00:56:00,53.3,47.3,29.87,SE,128,4.0,16.0,80,0.00,,BKN001,0.00,VWS V14.00,2013-07-19 06:56:00,
2013-07-19 01:01:00,53.2,47.2,29.88,SE,128,7.0,16.0,80,0.00,,BKN001,0.00,VWS V14.00,2013-07-19 07:01:00,
2013-07-19 01:06:00,53.2,47.2,29.88,SE,126,2.0,10.0,80,0.00,,BKN001,0.00,VWS V14.00,2013-07-19 07:06:00,
2013-07-19 01:11:00,52.6,46.9,29.88,SSE,164,10.0,11.0,81,0.00,,BKN001,0.00,VWS V14.00,2013-07-19 07:11:00,
2013-07-19 01:16:00,52.0,46.4,29.88,SSE,166,7.0,12.0,81,0.00,,BKN001,0.00,VWS V14.00,2013-07-19 07:16:00,
2013-07-19 01:21:00,50.9,45.9,29.88,SSW,192,6.0,12.0,83,0.00,,BKN001,0.00,VWS V14.00,2013-07-19 07:21:00,
2013-07-19 01:26:00,49.9,45.6,29.89,SSW,198,7.0,12.0,85,0.00,,BKN001,0.00,VWS V14.00,2013-07-19 07:26:00,
2013-07-19 01:31:00,49.9,45.6,29.89,South,176,7.0,12.0,85,0.00,,BKN001,0.00,VWS V14.00,2013-07-19 07:31:00,
2013-07-19 01:36:00,49.8,45.5,29.89,SSE,151,6.0,8.0,85,0.00,,BKN001,0.00,VWS V14.00,2013-07-19 07:36:00,
2013-07-19 01:41:00,49.4,45.4,29.89,SSE,163,5.0,8.0,86,0.00,,BKN001,0.00,VWS V14.00,2013-07-19 07:41:00,
2013-07-19 01:46:00,48.8,44.8,29.89,South,178,5.0,8.0,86,0.00,,BKN001,0.00,VWS V14.00,2013-07-19 07:46:00,
2013-07-19 01:51:00,48.3,44.6,29.89,SSW,209,5.0,8.0,87,0.00,,BKN001,0.00,VWS V14.00,2013-07-19 07:51:00,
2013-07-19 01:56:00,47.8,44.4,29.89,SSW,207,4.0,8.0,88,0.00,,BKN001,0.00,VWS V14.00,2013-07-19 07:56:00,
2013-07-19 02:01:00,48.1,45.3,29.89,SW,231,6.0,8.0,90,0.00,,BKN001,0.00,VWS V14.00,2013-07-19 08:01:00,
2013-07-19 02:06:00,48.1,45.3,29.89,WSW,240,3.0,5.0,90,0.00,,BKN001,0.00,VWS V14.00,2013-07-19 08:06:00,
2013-07-19 02:11:00,48.1,45.3,29.89,WSW,240,0.0,5.0,90,0.00,,BKN001,0.00,VWS V14.00,2013-07-19 08:11:00,
2013-07-19 02:16:00,48.1,45.3,29.90,WSW,240,0.0,5.0,90,0.00,,BKN001,0.00,VWS V14.00,2013-07-19 08:16:00,
2013-07-19 02:21:00,47.9,45.4,29.90,SSE,163,0.0,5.0,91,0.00,,BKN001,0.00,VWS V14.00,2013-07-19 08:21:00,
2013-07-19 02:26:00,47.8,45.3,29.90,SSE,163,0.0,5.0,91,0.00,,BKN001,0.00,VWS V14.00,2013-07-19 08:26:00,
2013-07-19 02:31:00,48.1,45.6,29.90,SSE,164,0.0,5.0,91,0.00,,BKN001,0.00,VWS V14.00,2013-07-19 08:31:00,
2013-07-19 02:36:00,48.2,45.4,29.90,SSE,164,4.0,4.0,90,0.00,,BKN001,0.00,VWS V14.00,2013-07-19 08:36:00,
2013-07-19 02:41:00,48.2,45.4,29.90,SSE,162,1.0,4.0,90,0.00,,BKN001,0.00,VWS V14.00,2013-07-19 08:41:00,
2013-07-19 02:46:00,48.1,45.3,29.90,SSE,162,0.0,4.0,90,0.00,,BKN001,0.00,VWS V14.00,2013-07-19 08:46:00,
2013-07-19 02:51:00,48.1,45.3,29.90,SSE,162,0.0,4.0,90,0.00,,BKN001,0.00,VWS V14.00,2013-07-19 08:51:00,
2013-07-19 02:56:00,48.0,45.2,29.90,SSE,163,0.0,4.0,90,0.00,,BKN001,0.00,VWS V14.00,2013-07-19 08:56:00,
2013-07-19 03:01:00,48.0,45.2,29.90,SW,233,4.0,5.0,90,0.00,,BKN001,0.00,VWS V14.00,2013-07-19 09:01:00,
2013-07-19 03:06:00,47.9,45.1,29.90,SW,230,5.0,6.0,90,0.00,,BKN001,0.00,VWS V14.00,2013-07-19 09:06:00,
2013-07-19 03:11:00,47.8,45.0,29.90,SW,236,6.0,7.0,90,0.00,,BKN001,0.00,VWS V14.00,2013-07-19 09:11:00,
2013-07-19 03:16:00,47.9,45.4,29.90,South,176,0.0,7.0,91,0.00,,BKN001,0.00,VWS V14.00,2013-07-19 09:16:00,
2013-07-19 03:21:00,47.9,45.1,29.89,South,176,0.0,7.0,90,0.00,,BKN001,0.00,VWS V14.00,2013-07-19 09:21:00,
2013-07-19 03:26:00,47.8,45.0,29.89,SW,221,5.0,7.0,90,0.00,,BKN001,0.00,VWS V14.00,2013-07-19 09:26:00,
2013-07-19 03:31:00,48.0,45.2,29.89,SSW,204,0.0,7.0,90,0.00,,BKN001,0.00,VWS V14.00,2013-07-19 09:31:00,
2013-07-19 03:36:00,47.9,45.1,29.89,SSE,162,4.0,4.0,90,0.00,,BKN001,0.00,VWS V14.00,2013-07-19 09:36:00,
2013-07-19 03:41:00,47.9,45.4,29.89,SE,145,4.0,6.0,91,0.00,,BKN001,0.00,VWS V14.00,2013-07-19 09:41:00,
2013-07-19 03:46:00,48.0,45.5,29.89,SE,144,1.0,6.0,91,0.00,,BKN001,0.00,VWS V14.00,2013-07-19 09:46:00,
2013-07-19 03:51:00,47.9,45.4,29.89,SE,144,0.0,6.0,91,0.00,,BKN001,0.00,VWS V14.00,2013-07-19 09:51:00,
2013-07-19 03:56:00,47.8,45.3,29.89,SE,144,0.0,6.0,91,0.00,,BKN001,0.00,VWS V14.00,2013-07-19 09:56:00,
2013-07-19 04:01:00,47.7,45.2,29.89,SE,143,0.0,6.0,91,0.00,,BKN001,0.00,VWS V14.00,2013-07-19 10:01:00,
2013-07-19 04:06:00,47.7,45.2,29.89,SE,144,0.0,1.0,91,0.00,,BKN001,0.00,VWS V14.00,2013-07-19 10:06:00,
2013-07-19 04:11:00,47.6,45.1,29.89,SE,144,0.0,1.0,91,0.00,,BKN001,0.00,VWS V14.00,2013-07-19 10:11:00,
2013-07-19 04:16:00,47.4,44.9,29.89,SE,143,0.0,1.0,91,0.00,,BKN001,0.00,VWS V14.00,2013-07-19 10:16:00,
2013-07-19 04:21:00,47.3,44.8,29.88,SE,144,0.0,1.0,91,0.00,,BKN001,0.00,VWS V14.00,2013-07-19 10:21:00,
2013-07-19 04:26:00,47.3,44.8,29.88,SE,144,0.0,1.0,91,0.00,,BKN001,0.00,VWS V14.00,2013-07-19 10:26:00,
2013-07-19 04:31:00,47.2,44.7,29.88,SE,144,0.0,1.0,91,0.00,,BKN001,0.00,VWS V14.00,2013-07-19 10:31:00,
2013-07-19 04:36:00,47.1,44.9,29.88,SE,144,0.0,1.0,92,0.00,,BKN001,0.00,VWS V14.00,2013-07-19 10:36:00,
2013-07-19 04:41:00,47.1,44.9,29.88,SE,143,2.0,3.0,92,0.00,,BKN001,0.00,VWS V14.00,2013-07-19 10:41:00,
2013-07-19 04:46:00,47.1,44.9,29.88,SE,143,3.0,4.0,92,0.00,,BKN001,0.00,VWS V14.00,2013-07-19 10:46:00,
2013-07-19 04:51:00,46.9,44.7,29.88,SE,146,3.0,4.0,92,0.00,,BKN001,0.00,VWS V14.00,2013-07-19 10:51:00,
2013-07-19 04:56:00,46.9,44.7,29.88,SSE,161,4.0,5.0,92,0.00,,BKN001,0.00,VWS V14.00,2013-07-19 10:56:00,
2013-07-19 05:01:00,46.9,44.7,29.89,SSE,161,1.0,5.0,92,0.00,,BKN001,0.00,VWS V14.00,2013-07-19 11:01:00,
2013-07-19 05:06:00,46.7,44.5,29.89,SSE,161,0.0,2.0,92,0.00,,BKN001,0.00,VWS V14.00,2013-07-19 11:06:00,
2013-07-19 05:11:00,46.6,44.4,29.88,SSE,160,2.0,4.0,92,0.00,,BKN001,0.00,VWS V14.00,2013-07-19 11:11:00,
2013-07-19 05:16:00,46.5,44.3,29.89,SSE,161,0.0,4.0,92,0.00,,BKN001,0.00,VWS V14.00,2013-07-19 11:16:00,
2013-07-19 05:21:00,46.4,44.5,29.89,SSE,161,0.0,4.0,93,0.00,,BKN001,0.00,VWS V14.00,2013-07-19 11:21:00,
2013-07-19 05:26:00,46.4,44.5,29.90,SSE,160,3.0,4.0,93,0.00,,BKN001,0.00,VWS V14.00,2013-07-19 11:26:00,
2013-07-19 05:31:00,46.5,44.6,29.90,SSE,160,4.0,5.0,93,0.00,,BKN001,0.00,VWS V14.00,2013-07-19 11:31:00,
2013-07-19 05:36:00,45.9,44.0,29.90,SSE,165,3.0,5.0,93,0.00,,BKN001,0.00,VWS V14.00,2013-07-19 11:36:00,
2013-07-19 05:41:00,46.5,44.6,29.90,SSE,150,4.0,6.0,93,0.00,,BKN001,0.00,VWS V14.00,2013-07-19 11:41:00,
2013-07-19 05:45:00,47.1,45.2,29.90,SE,145,4.0,7.0,93,0.00,,BKN001,0.00,VWS V14.00,2013-07-19 11:45:00,
2013-07-19 05:50:00,47.2,45.3,29.90,SE,145,4.0,7.0,93,0.00,,BKN001,0.00,VWS V14.00,2013-07-19 11:50:00,
2013-07-19 05:55:00,46.9,44.7,29.91,SSE,153,3.0,7.0,92,0.00,,BKN001,0.00,VWS V14.00,2013-07-19 11:55:00,
2013-07-19 06:00:00,46.2,44.0,29.91,SSW,200,5.0,7.0,92,0.00,,BKN001,0.00,VWS V14.00,2013-07-19 12:00:00,
2013-07-19 06:05:00,46.0,43.8,29.91,SSW,201,0.0,1.0,92,0.00,,BKN001,0.00,VWS V14.00,2013-07-19 12:05:00,
2013-07-19 06:10:00,45.8,43.6,29.92,SSW,201,0.0,1.0,92,0.00,,BKN001,0.00,VWS V14.00,2013-07-19 12:10:00,
2013-07-19 06:15:00,45.6,43.4,29.92,SSE,152,0.0,2.0,92,0.00,,BKN001,0.00,VWS V14.00,2013-07-19 12:15:00,
2013-07-19 06:20:00,45.4,43.2,29.92,NE,47,4.0,5.0,92,0.00,,BKN001,0.00,VWS V14.00,2013-07-19 12:20:00,
2013-07-19 06:25:00,45.5,43.6,29.92,NE,47,0.0,5.0,93,0.00,,BKN001,0.00,VWS V14.00,2013-07-19 12:25:00,
2013-07-19 06:30:00,45.6,43.7,29.92,NE,47,0.0,5.0,93,0.00,,BKN001,0.00,VWS V14.00,2013-07-19 12:30:00,
2013-07-19 06:35:00,45.8,43.9,29.93,NE,47,0.0,0.0,93,0.00,,BKN001,0.00,VWS V14.00,2013-07-19 12:35:00,
2013-07-19 06:40:00,45.7,43.8,29.93,NE,47,0.0,1.0,93,0.00,,BKN001,0.00,VWS V14.00,2013-07-19 12:40:00,
2013-07-19 06:45:00,45.9,44.0,29.93,NE,46,0.0,1.0,93,0.00,,BKN001,0.00,VWS V14.00,2013-07-19 12:45:00,
2013-07-19 06:50:00,46.1,44.2,29.93,NE,47,0.0,1.0,93,0.00,,BKN001,0.00,VWS V14.00,2013-07-19 12:50:00,
2013-07-19 06:55:00,46.2,44.3,29.93,NE,48,3.0,3.0,93,0.00,,BKN001,0.00,VWS V14.00,2013-07-19 12:55:00,
2013-07-19 07:00:00,46.3,44.4,29.93,NE,48,0.0,3.0,93,0.00,,BKN001,0.00,VWS V14.00,2013-07-19 13:00:00,
2013-07-19 07:05:00,46.5,44.6,29.93,NE,48,0.0,1.0,93,0.00,,BKN001,0.00,VWS V14.00,2013-07-19 13:05:00,
2013-07-19 07:10:00,46.4,44.5,29.93,NE,48,1.0,4.0,93,0.00,,BKN001,0.00,VWS V14.00,2013-07-19 13:10:00,
2013-07-19 07:15:00,46.5,44.6,29.93,NE,48,0.0,4.0,93,0.00,,BKN001,0.00,VWS V14.00,2013-07-19 13:15:00,
2013-07-19 07:20:00,46.5,44.6,29.94,NE,48,3.0,4.0,93,0.00,,BKN001,0.00,VWS V14.00,2013-07-19 13:20:00,
2013-07-19 07:25:00,46.5,44.6,29.93,NE,48,1.0,4.0,93,0.00,,BKN001,0.00,VWS V14.00,2013-07-19 13:25:00,
2013-07-19 07:26:00,46.5,44.6,29.93,NE,48,2.0,4.0,93,0.00,,BKN001,0.00,VWS V14.00,2013-07-19 13:26:00,
2013-07-19 07:31:00,46.5,44.6,29.93,East,98,3.0,4.0,93,0.00,,BKN001,0.00,VWS V14.00,2013-07-19 13:31:00,
2013-07-19 07:36:00,46.5,44.6,29.93,East,98,3.0,4.0,93,0.00,,BKN001,0.00,VWS V14.00,2013-07-19 13:36:00,
2013-07-19 07:41:00,46.6,44.7,29.93,South,179,4.0,4.0,93,0.00,,BKN001,0.00,VWS V14.00,2013-07-19 13:41:00,
2013-07-19 07:46:00,46.9,45.0,29.93,South,179,2.0,4.0,93,0.00,,BKN001,0.00,VWS V14.00,2013-07-19 13:46:00,
2013-07-19 07:51:00,47.5,45.6,29.93,South,176,3.0,5.0,93,0.00,,BKN001,0.00,VWS V14.00,2013-07-19 13:51:00,
2013-07-19 07:56:00,48.3,46.4,29.93,SSE,165,2.0,7.0,93,0.00,,BKN001,0.00,VWS V14.00,2013-07-19 13:56:00,
2013-07-19 08:01:00,48.7,46.2,29.93,SSE,149,5.0,7.0,91,0.00,,BKN001,0.00,VWS V14.00,2013-07-19 14:01:00,
2013-07-19 08:06:00,48.9,46.1,29.93,SSE,158,2.0,6.0,90,0.00,,BKN001,0.00,VWS V14.00,2013-07-19 14:06:00,
2013-07-19 08:11:00,49.8,47.0,29.93,SE,143,5.0,8.0,90,0.00,,BKN001,0.00,VWS V14.00,2013-07-19 14:11:00,
2013-07-19 08:16:00,51.0,47.6,29.92,SSE,151,4.0,8.0,88,0.00,,BKN001,0.00,VWS V14.00,2013-07-19 14:16:00,
2013-07-19 08:21:00,51.8,47.4,29.92,SSE,149,3.0,8.0,85,0.00,,BKN001,0.00,VWS V14.00,2013-07-19 14:21:00,
2013-07-19 08:26:00,52.0,47.0,29.92,SE,141,6.0,9.0,83,0.00,,BKN001,0.00,VWS V14.00,2013-07-19 14:26:00,
2013-07-19 08:31:00,52.5,47.5,29.92,SE,124,6.0,9.0,83,0.00,,BKN001,0.00,VWS V14.00,2013-07-19 14:31:00,
2013-07-19 08:36:00,53.0,47.3,29.92,SE,129,3.0,9.0,81,0.00,,BKN001,0.00,VWS V14.00,2013-07-19 14:36:00,
2013-07-19 08:41:00,53.2,46.9,29.92,SSE,161,1.0,9.0,79,0.00,,BKN001,0.00,VWS V14.00,2013-07-19 14:41:00,
2013-07-19 08:46:00,53.2,47.2,29.92,SE,138,2.0,9.0,80,0.00,,BKN001,0.00,VWS V14.00,2013-07-19 14:46:00,
2013-07-19 08:51:00,54.2,47.8,29.91,SSE,158,3.0,9.0,79,0.00,,BKN001,0.00,VWS V14.00,2013-07-19 14:51:00,
2013-07-19 08:56:00,54.1,47.1,29.91,SSE,156,2.0,9.0,77,0.00,,BKN001,0.00,VWS V14.00,2013-07-19 14:56:00,
2013-07-19 09:01:00,54.9,47.8,29.91,SE,144,1.0,9.0,77,0.00,,BKN001,0.00,VWS V14.00,2013-07-19 15:01:00,
2013-07-19 09:06:00,55.2,48.1,29.91,SSE,160,2.0,6.0,77,0.00,,BKN001,0.00,VWS V14.00,2013-07-19 15:06:00,
2013-07-19 09:11:00,55.8,47.7,29.90,SSE,164,2.0,8.0,74,0.00,,BKN001,0.00,VWS V14.00,2013-07-19 15:11:00,
2013-07-19 09:16:00,55.8,47.7,29.90,SSE,154,4.0,8.0,74,0.00,,BKN001,0.00,VWS V14.00,2013-07-19 15:16:00,
2013-07-19 09:21:00,56.0,47.8,29.90,SE,139,5.0,8.0,74,0.00,,BKN001,0.00,VWS V14.00,2013-07-19 15:21:00,
2013-07-19 09:26:00,56.2,48.0,29.89,SSE,152,5.0,8.0,74,0.00,,BKN001,0.00,VWS V14.00,2013-07-19 15:26:00,
2013-07-19 09:31:00,56.8,48.2,29.89,SE,131,9.0,9.0,73,0.00,,BKN001,0.00,VWS V14.00,2013-07-19 15:31:00,
2013-07-19 09:36:00,57.6,48.7,29.89,ESE,123,8.0,10.0,72,0.00,,BKN001,0.00,VWS V14.00,2013-07-19 15:36:00,
2013-07-19 09:41:00,57.9,48.6,29.89,SSE,148,4.0,12.0,71,0.00,,BKN001,0.00,VWS V14.00,2013-07-19 15:41:00,
2013-07-19 09:46:00,58.4,48.7,29.89,SSE,150,7.0,12.0,70,0.00,,BKN001,0.00,VWS V14.00,2013-07-19 15:46:00,
2013-07-19 09:51:00,59.0,48.9,29.88,SE,125,6.0,12.0,69,0.00,,BKN001,0.00,VWS V14.00,2013-07-19 15:51:00,
2013-07-19 09:56:00,59.0,48.5,29.88,SSE,166,5.0,12.0,68,0.00,,BKN001,0.00,VWS V14.00,2013-07-19 15:56:00,
2013-07-19 10:01:00,59.8,48.8,29.87,SSE,158,2.0,12.0,67,0.00,,BKN001,0.00,VWS V14.00,2013-07-19 16:01:00,
2013-07-19 10:06:00,60.4,49.4,29.87,ESE,121,1.0,9.0,67,0.00,,BKN001,0.00,VWS V14.00,2013-07-19 16:06:00,
2013-07-19 10:11:00,60.7,48.5,29.87,SSE,165,3.0,9.0,64,0.00,,BKN001,0.00,VWS V14.00,2013-07-19 16:11:00,
2013-07-19 10:16:00,60.3,48.1,29.87,SE,146,3.0,9.0,64,0.00,,BKN001,0.00,VWS V14.00,2013-07-19 16:16:00,
2013-07-19 10:21:00,60.6,49.2,29.87,SE,139,6.0,9.0,66,0.00,,BKN001,0.00,VWS V14.00,2013-07-19 16:21:00,
2013-07-19 10:26:00,60.6,48.4,29.86,South,169,4.0,9.0,64,0.00,,BKN001,0.00,VWS V14.00,2013-07-19 16:26:00,
2013-07-19 10:31:00,60.6,48.8,29.86,SE,146,5.0,9.0,65,0.00,,BKN001,0.00,VWS V14.00,2013-07-19 16:31:00,
2013-07-19 10:36:00,61.2,49.3,29.85,SSE,149,4.0,8.0,65,0.00,,BKN001,0.00,VWS V14.00,2013-07-19 16:36:00,
2013-07-19 10:41:00,61.4,49.1,29.85,SE,146,6.0,8.0,64,0.00,,BKN001,0.00,VWS V14.00,2013-07-19 16:41:00,
2013-07-19 10:46:00,62.0,48.8,29.85,SE,143,5.0,8.0,62,0.00,,BKN001,0.00,VWS V14.00,2013-07-19 16:46:00,
2013-07-19 10:51:00,63.1,50.3,29.84,South,184,3.0,9.0,63,0.00,,BKN001,0.00,VWS V14.00,2013-07-19 16:51:00,
2013-07-19 10:56:00,63.8,50.1,29.84,SE,143,8.0,9.0,61,0.00,,BKN001,0.00,VWS V14.00,2013-07-19 16:56:00,
2013-07-19 11:01:00,64.8,49.2,29.84,SSE,150,3.0,9.0,57,0.00,,BKN001,0.00,VWS V14.00,2013-07-19 17:01:00,
2013-07-19 11:06:00,65.7,48.6,29.84,SE,138,7.0,7.0,54,0.00,,BKN001,0.00,VWS V14.00,2013-07-19 17:06:00,
2013-07-19 11:11:00,66.7,49.5,29.83,SE,131,3.0,7.0,54,0.00,,BKN001,0.00,VWS V14.00,2013-07-19 17:11:00,
2013-07-19 11:16:00,67.7,48.9,29.83,SE,141,4.0,8.0,51,0.00,,BKN001,0.00,VWS V14.00,2013-07-19 17:16:00,
2013-07-19 11:21:00,68.0,47.6,29.83,SE,135,7.0,8.0,48,0.00,,BKN001,0.00,VWS V14.00,2013-07-19 17:21:00,
2013-07-19 11:26:00,69.2,48.7,29.83,SSW,197,4.0,8.0,48,0.00,,BKN001,0.00,VWS V14.00,2013-07-19 17:26:00,
2013-07-19 11:31:00,69.8,48.1,29.82,SE,139,5.0,11.0,46,0.00,,BKN001,0.00,VWS V14.00,2013-07-19 17:31:00,
2013-07-19 11:36:00,69.9,47.6,29.82,SE,129,7.0,10.0,45,0.00,,BKN001,0.00,VWS V14.00,2013-07-19 17:36:00,
2013-07-19 11:41:00,70.5,46.3,29.82,SE,132,6.0,10.0,42,0.00,,BKN001,0.00,VWS V14.00,2013-07-19 17:41:00,
2013-07-19 11:46:00,71.8,46.9,29.81,SE,127,3.0,11.0,41,0.00,,BKN001,0.00,VWS V14.00,2013-07-19 17:46:00,
2013-07-19 11:51:00,72.6,45.6,29.81,ESE,120,7.0,11.0,38,0.00,,BKN001,0.00,VWS V14.00,2013-07-19 17:51:00,
2013-07-19 11:56:00,72.5,46.2,29.81,ESE,110,5.0,11.0,39,0.00,,BKN001,0.00,VWS V14.00,2013-07-19 17:56:00,
2013-07-19 12:01:00,73.0,45.9,29.81,ESE,110,2.0,11.0,38,0.00,,BKN001,0.00,VWS V14.00,2013-07-19 18:01:00,
2013-07-19 12:06:00,73.3,44.8,29.80,SSE,165,6.0,9.0,36,0.00,,BKN001,0.00,VWS V14.00,2013-07-19 18:06:00,
2013-07-19 12:11:00,71.6,44.0,29.80,SE,127,0.0,11.0,37,0.00,,BKN001,0.00,VWS V14.00,2013-07-19 18:11:00,
2013-07-19 12:16:00,71.7,45.5,29.79,ESE,105,7.0,11.0,39,0.00,,BKN001,0.00,VWS V14.00,2013-07-19 18:16:00,
2013-07-19 12:21:00,71.2,42.9,29.80,ESE,104,4.0,12.0,36,0.00,,BKN001,0.00,VWS V14.00,2013-07-19 18:21:00,
2013-07-19 12:26:00,73.0,44.5,29.79,SE,129,5.0,12.0,36,0.00,,BKN001,0.00,VWS V14.00,2013-07-19 18:26:00,
2013-07-19 12:31:00,73.5,43.4,29.79,South,174,0.0,12.0,34,0.00,,BKN001,0.00,VWS V14.00,2013-07-19 18:31:00,
2013-07-19 12:36:00,74.1,44.7,29.78,East,96,5.0,11.0,35,0.00,,BKN001,0.00,VWS V14.00,2013-07-19 18:36:00,
2013-07-19 12:41:00,74.7,44.5,29.78,SE,146,5.0,13.0,34,0.00,,BKN001,0.00,VWS V14.00,2013-07-19 18:41:00,
2013-07-19 12:46:00,73.2,44.7,29.78,SE,130,9.0,13.0,36,0.00,,BKN001,0.00,VWS V14.00,2013-07-19 18:46:00,
2013-07-19 12:51:00,72.5,46.2,29.78,SE,130,7.0,14.0,39,0.00,,BKN001,0.00,VWS V14.00,2013-07-19 18:51:00,
2013-07-19 12:56:00,71.9,47.0,29.78,WSW,246,3.0,15.0,41,0.00,,BKN001,0.00,VWS V14.00,2013-07-19 18:56:00,
2013-07-19 13:01:00,71.5,46.6,29.78,SE,132,4.0,15.0,41,0.00,,BKN001,0.00,VWS V14.00,2013-07-19 19:01:00,
2013-07-19 13:06:00,71.3,45.8,29.78,East,91,4.0,10.0,40,0.00,,BKN001,0.00,VWS V14.00,2013-07-19 19:06:00,
2013-07-19 13:11:00,71.3,47.7,29.78,SE,136,8.0,11.0,43,0.00,,BKN001,0.00,VWS V14.00,2013-07-19 19:11:00,
2013-07-19 13:16:00,71.0,47.4,29.77,SE,127,10.0,11.0,43,0.00,,BKN001,0.00,VWS V14.00,2013-07-19 19:16:00,
2013-07-19 13:21:00,70.5,47.6,29.77,SSE,165,12.0,15.0,44,0.00,,BKN001,0.00,VWS V14.00,2013-07-19 19:21:00,
2013-07-19 13:26:00,70.3,46.8,29.77,South,177,11.0,15.0,43,0.00,,BKN001,0.00,VWS V14.00,2013-07-19 19:26:00,
2013-07-19 13:31:00,70.4,46.9,29.77,SE,131,6.0,15.0,43,0.00,,BKN001,0.00,VWS V14.00,2013-07-19 19:31:00,
2013-07-19 13:36:00,69.9,47.0,29.77,SSW,210,17.0,17.0,44,0.00,,BKN001,0.00,VWS V14.00,2013-07-19 19:36:00,
2013-07-19 13:41:00,68.4,46.8,29.78,SW,232,10.0,18.0,46,0.00,,BKN001,0.00,VWS V14.00,2013-07-19 19:41:00,
2013-07-19 13:46:00,65.4,49.8,29.79,West,264,4.0,18.0,57,0.00,,BKN001,0.00,VWS V14.00,2013-07-19 19:46:00,
2013-07-19 13:51:00,64.5,48.5,29.78,West,274,7.0,18.0,56,0.00,,BKN001,0.00,VWS V14.00,2013-07-19 19:51:00,
2013-07-19 13:56:00,64.2,50.9,29.79,WSW,248,6.0,18.0,62,0.00,,BKN001,0.00,VWS V14.00,2013-07-19 19:56:00,
2013-07-19 14:01:00,62.5,51.0,29.80,West,278,2.0,18.0,66,0.00,,BKN001,0.00,VWS V14.00,2013-07-19 20:01:00,
2013-07-19 14:06:00,61.6,51.3,29.81,NNE,14,14.0,15.0,69,0.05,,BKN001,0.05,VWS V14.00,2013-07-19 20:06:00,
2013-07-19 14:11:00,58.8,49.4,29.81,ENE,65,9.0,20.0,71,0.13,,BKN001,0.13,VWS V14.00,2013-07-19 20:11:00,
2013-07-19 14:16:00,57.5,48.9,29.81,NE,51,2.0,20.0,73,0.20,,BKN001,0.20,VWS V14.00,2013-07-19 20:16:00,
2013-07-19 14:21:00,56.7,50.3,29.82,East,79,3.0,20.0,79,0.23,,BKN001,0.23,VWS V14.00,2013-07-19 20:21:00,
2013-07-19 14:26:00,55.9,50.5,29.82,East,79,2.0,20.0,82,0.25,,BKN001,0.25,VWS V14.00,2013-07-19 20:26:00,
2013-07-19 14:31:00,56.0,50.9,29.83,NNW,330,1.0,20.0,83,0.27,,BKN001,0.27,VWS V14.00,2013-07-19 20:31:00,
2013-07-19 14:36:00,55.8,50.1,29.83,NNW,328,1.0,4.0,81,0.27,,BKN001,0.27,VWS V14.00,2013-07-19 20:36:00,
2013-07-19 14:41:00,55.4,50.3,29.83,NE,37,7.0,11.0,83,0.28,,BKN001,0.28,VWS V14.00,2013-07-19 20:41:00,
2013-07-19 14:46:00,54.9,50.5,29.83,NE,42,8.0,11.0,85,0.28,,BKN001,0.28,VWS V14.00,2013-07-19 20:46:00,
2013-07-19 14:51:00,54.5,50.4,29.83,NE,39,7.0,11.0,86,0.29,,BKN001,0.29,VWS V14.00,2013-07-19 20:51:00,
2013-07-19 14:56:00,54.5,50.4,29.83,NE,41,8.0,11.0,86,0.29,,BKN001,0.29,VWS V14.00,2013-07-19 20:56:00,
2013-07-19 15:01:00,54.9,50.5,29.84,NE,49,5.0,11.0,85,0.29,,BKN001,0.29,VWS V14.00,2013-07-19 21:01:00,
2013-07-19 15:06:00,54.9,50.5,29.84,NE,53,1.0,4.0,85,0.30,,BKN001,0.30,VWS V14.00,2013-07-19 21:06:00,
2013-07-19 15:11:00,54.8,51.0,29.84,NE,53,4.0,4.0,87,0.30,,BKN001,0.30,VWS V14.00,2013-07-19 21:11:00,
2013-07-19 15:16:00,54.8,51.0,29.84,WNW,283,0.0,5.0,87,0.31,,BKN001,0.31,VWS V14.00,2013-07-19 21:16:00,
2013-07-19 15:21:00,54.8,51.3,29.84,WNW,283,0.0,5.0,88,0.31,,BKN001,0.31,VWS V14.00,2013-07-19 21:21:00,
2013-07-19 15:26:00,54.7,51.5,29.84,NNE,14,2.0,5.0,89,0.32,,BKN001,0.32,VWS V14.00,2013-07-19 21:26:00,
2013-07-19 15:31:00,54.6,51.4,29.84,NNE,20,2.0,5.0,89,0.32,,BKN001,0.32,VWS V14.00,2013-07-19 21:31:00,
2013-07-19 15:36:00,54.6,51.7,29.84,NNE,20,5.0,5.0,90,0.05,,BKN001,0.32,VWS V14.00,2013-07-19 21:36:00,
2013-07-19 15:41:00,54.6,51.7,29.84,NNE,20,1.0,5.0,90,0.06,,BKN001,0.33,VWS V14.00,2013-07-19 21:41:00,
2013-07-19 15:46:00,54.6,52.0,29.84,NNE,20,2.0,5.0,91,0.06,,BKN001,0.33,VWS V14.00,2013-07-19 21:46:00,
2013-07-19 15:51:00,54.6,52.0,29.84,NNE,20,2.0,5.0,91,0.07,,BKN001,0.34,VWS V14.00,2013-07-19 21:51:00,
2013-07-19 15:56:00,54.6,52.0,29.84,NNE,20,1.0,5.0,91,0.07,,BKN001,0.34,VWS V14.00,2013-07-19 21:56:00,
2013-07-19 16:01:00,54.6,52.0,29.85,NNE,20,0.0,5.0,91,0.08,,BKN001,0.35,VWS V14.00,2013-07-19 22:01:00,
2013-07-19 16:06:00,54.8,52.2,29.85,NNE,20,0.0,0.0,91,0.07,,BKN001,0.36,VWS V14.00,2013-07-19 22:06:00,
2013-07-19 16:11:00,54.9,52.3,29.85,NNE,20,0.0,1.0,91,0.07,,BKN001,0.36,VWS V14.00,2013-07-19 22:11:00,
2013-07-19 16:16:00,55.0,52.4,29.85,NNE,20,0.0,1.0,91,0.08,,BKN001,0.37,VWS V14.00,2013-07-19 22:16:00,
2013-07-19 16:21:00,55.2,52.9,29.85,NNE,20,3.0,4.0,92,0.08,,BKN001,0.37,VWS V14.00,2013-07-19 22:21:00,
2013-07-19 16:26:00,55.3,53.0,29.86,SSE,155,4.0,6.0,92,0.09,,BKN001,0.38,VWS V14.00,2013-07-19 22:26:00,
2013-07-19 16:31:00,54.9,52.3,29.86,SSE,153,4.0,9.0,91,0.09,,BKN001,0.38,VWS V14.00,2013-07-19 22:31:00,
2013-07-19 16:36:00,54.6,52.0,29.86,South,173,4.0,6.0,91,0.07,,BKN001,0.39,VWS V14.00,2013-07-19 22:36:00,
2013-07-19 16:41:00,54.5,52.2,29.86,SSE,159,5.0,7.0,92,0.07,,BKN001,0.39,VWS V14.00,2013-07-19 22:41:00,
2013-07-19 16:46:00,54.6,52.3,29.86,SSE,160,0.0,7.0,92,0.07,,BKN001,0.39,VWS V14.00,2013-07-19 22:46:00,
2013-07-19 16:51:00,54.7,52.4,29.86,SSE,160,4.0,7.0,92,0.07,,BKN001,0.39,VWS V14.00,2013-07-19 22:51:00,
2013-07-19 16:56:00,54.7,52.4,29.86,SE,131,6.0,8.0,92,0.07,,BKN001,0.39,VWS V14.00,2013-07-19 22:56:00,
2013-07-19 17:01:00,54.8,52.2,29.86,SE,131,4.0,8.0,91,0.07,,BKN001,0.39,VWS V14.00,2013-07-19 23:01:00,
2013-07-19 17:06:00,55.1,52.5,29.86,SE,127,4.0,7.0,91,0.04,,BKN001,0.39,VWS V14.00,2013-07-19 23:06:00,
2013-07-19 17:11:00,55.3,52.1,29.86,SE,131,2.0,7.0,89,0.04,,BKN001,0.39,VWS V14.00,2013-07-19 23:11:00,
2013-07-19 17:16:00,55.6,52.4,29.85,SSE,159,2.0,7.0,89,0.04,,BKN001,0.39,VWS V14.00,2013-07-19 23:16:00,
2013-07-19 17:21:00,55.6,52.4,29.86,WSW,243,5.0,8.0,89,0.04,,BKN001,0.39,VWS V14.00,2013-07-19 23:21:00,
2013-07-19 17:26:00,55.4,52.5,29.85,WSW,243,6.0,8.0,90,0.05,,BKN001,0.40,VWS V14.00,2013-07-19 23:26:00,
2013-07-19 17:31:00,55.6,52.4,29.85,SSE,160,3.0,11.0,89,0.05,,BKN001,0.40,VWS V14.00,2013-07-19 23:31:00,
2013-07-19 17:36:00,55.8,52.3,29.85,SSE,151,4.0,9.0,88,0.02,,BKN001,0.40,VWS V14.00,2013-07-19 23:36:00,
2013-07-19 17:41:00,55.8,52.3,29.85,ESE,123,12.0,12.0,88,0.02,,BKN001,0.40,VWS V14.00,2013-07-19 23:41:00,
2013-07-19 17:46:00,55.9,52.1,29.85,SE,145,7.0,12.0,87,0.02,,BKN001,0.40,VWS V14.00,2013-07-19 23:46:00,
2013-07-19 17:51:00,55.7,51.9,29.85,SE,139,9.0,12.0,87,0.02,,BKN001,0.40,VWS V14.00,2013-07-19 23:51:00,
2013-07-19 17:56:00,55.6,52.1,29.85,SE,132,7.0,12.0,88,0.02,,BKN001,0.40,VWS V14.00,2013-07-19 23:56:00,
2013-07-19 18:01:00,55.7,52.2,29.85,SE,136,12.0,12.0,88,0.02,,BKN001,0.40,VWS V14.00,2013-07-20 00:01:00,
2013-07-19 18:06:00,55.9,52.1,29.85,SSE,153,5.0,14.0,87,0.01,,BKN001,0.40,VWS V14.00,2013-07-20 00:06:00,
2013-07-19 18:11:00,56.1,52.3,29.85,SSW,210,9.0,14.0,87,0.01,,BKN001,0.40,VWS V14.00,2013-07-20 00:11:00,
2013-07-19 18:16:00,55.9,52.7,29.85,SSE,151,9.0,14.0,89,0.01,,BKN001,0.40,VWS V14.00,2013-07-20 00:16:00,
2013-07-19 18:21:00,56.3,52.5,29.85,SE,143,6.0,14.0,87,0.01,,BKN001,0.40,VWS V14.00,2013-07-20 00:21:00,
2013-07-19 18:26:00,56.6,52.5,29.85,SE,141,6.0,14.0,86,0.01,,BKN001,0.40,VWS V14.00,2013-07-20 00:26:00,
2013-07-19 18:31:00,56.6,52.2,29.86,SE,138,8.0,14.0,85,0.01,,BKN001,0.40,VWS V14.00,2013-07-20 00:31:00,
2013-07-19 18:36:00,56.8,52.0,29.86,SE,134,0.0,11.0,84,0.00,,BKN001,0.40,VWS V14.00,2013-07-20 00:36:00,
2013-07-19 18:41:00,56.6,52.2,29.86,SE,134,1.0,11.0,85,0.00,,BKN001,0.40,VWS V14.00,2013-07-20 00:41:00,
2013-07-19 18:46:00,56.5,52.0,29.87,SE,134,0.0,11.0,85,0.00,,BKN001,0.40,VWS V14.00,2013-07-20 00:46:00,
2013-07-19 18:51:00,56.5,52.4,29.87,SE,134,0.0,11.0,86,0.00,,BKN001,0.40,VWS V14.00,2013-07-20 00:51:00,
2013-07-19 18:56:00,56.4,52.3,29.87,SE,134,0.0,11.0,86,0.00,,BKN001,0.40,VWS V14.00,2013-07-20 00:56:00,
2013-07-19 19:01:00,56.3,52.2,29.87,SE,134,0.0,11.0,86,0.00,,BKN001,0.40,VWS V14.00,2013-07-20 01:01:00,
2013-07-19 19:06:00,56.3,52.5,29.87,SE,134,1.0,2.0,87,0.00,,BKN001,0.40,VWS V14.00,2013-07-20 01:06:00,
2013-07-19 19:11:00,56.2,52.4,29.87,SE,134,0.0,3.0,87,0.00,,BKN001,0.40,VWS V14.00,2013-07-20 01:11:00,
2013-07-19 19:16:00,56.1,52.3,29.88,SE,134,0.0,3.0,87,0.00,,BKN001,0.40,VWS V14.00,2013-07-20 01:16:00,
2013-07-19 19:21:00,56.0,52.5,29.88,SE,134,1.0,3.0,88,0.00,,BKN001,0.40,VWS V14.00,2013-07-20 01:21:00,
2013-07-19 19:26:00,55.8,52.3,29.88,SE,134,0.0,3.0,88,0.00,,BKN001,0.40,VWS V14.00,2013-07-20 01:26:00,
2013-07-19 19:32:00,55.7,52.2,29.88,SE,134,0.0,3.0,88,0.00,,BKN001,0.40,VWS V14.00,2013-07-20 01:32:00,
2013-07-19 19:36:00,55.7,52.5,29.88,SE,134,0.0,0.0,89,0.00,,BKN001,0.40,VWS V14.00,2013-07-20 01:36:00,
2013-07-19 19:41:00,55.5,52.3,29.88,SE,134,0.0,1.0,89,0.00,,BKN001,0.40,VWS V14.00,2013-07-20 01:41:00,
2013-07-19 19:46:00,55.3,52.1,29.89,SE,134,0.0,1.0,89,0.00,,BKN001,0.40,VWS V14.00,2013-07-20 01:46:00,
2013-07-19 19:51:00,55.1,52.2,29.89,SE,134,0.0,1.0,90,0.00,,BKN001,0.40,VWS V14.00,2013-07-20 01:51:00,
2013-07-19 19:56:00,55.1,52.5,29.89,SE,134,2.0,3.0,91,0.00,,BKN001,0.40,VWS V14.00,2013-07-20 01:56:00,
2013-07-19 20:01:00,55.1,52.5,29.89,SE,134,2.0,4.0,91,0.00,,BKN001,0.40,VWS V14.00,2013-07-20 02:01:00,
2013-07-19 20:06:00,55.0,52.4,29.89,SE,134,4.0,5.0,91,0.00,,BKN001,0.40,VWS V14.00,2013-07-20 02:06:00,
2013-07-19 20:11:00,55.1,52.2,29.89,SSE,155,4.0,7.0,90,0.00,,BKN001,0.40,VWS V14.00,2013-07-20 02:11:00,
2013-07-19 20:16:00,55.0,51.8,29.89,SSE,155,5.0,7.0,89,0.00,,BKN001,0.40,VWS V14.00,2013-07-20 02:16:00,
2013-07-19 20:21:00,54.9,51.4,29.88,SE,146,4.0,7.0,88,0.00,,BKN001,0.40,VWS V14.00,2013-07-20 02:21:00,
2013-07-19 20:26:00,54.9,51.4,29.88,SE,131,8.0,10.0,88,0.00,,BKN001,0.40,VWS V14.00,2013-07-20 02:26:00,
2013-07-19 20:31:00,55.0,51.2,29.89,ESE,117,10.0,13.0,87,0.00,,BKN001,0.40,VWS V14.00,2013-07-20 02:31:00,
2013-07-19 20:36:00,55.2,51.1,29.89,ESE,115,3.0,11.0,86,0.00,,BKN001,0.40,VWS V14.00,2013-07-20 02:36:00,
2013-07-19 20:37:00,55.2,51.1,29.89,ESE,116,4.0,11.0,86,0.00,,BKN001,0.40,VWS V14.00,2013-07-20 02:37:00,
2013-07-19 20:42:00,55.1,51.0,29.89,SE,125,5.0,11.0,86,0.00,,BKN001,0.40,VWS V14.00,2013-07-20 02:42:00,
2013-07-19 20:47:00,54.9,50.8,29.89,SE,136,7.0,11.0,86,0.00,,BKN001,0.40,VWS V14.00,2013-07-20 02:47:00,
2013-07-19 20:52:00,54.6,50.8,29.90,South,174,4.0,11.0,87,0.00,,BKN001,0.40,VWS V14.00,2013-07-20 02:52:00,
2013-07-19 20:57:00,54.2,50.7,29.90,South,185,7.0,11.0,88,0.00,,BKN001,0.40,VWS V14.00,2013-07-20 02:57:00,
2013-07-19 21:02:00,54.0,50.8,29.90,SSW,195,4.0,11.0,89,0.00,,BKN001,0.40,VWS V14.00,2013-07-20 03:02:00,
2013-07-19 21:07:00,53.8,50.9,29.90,SW,216,4.0,6.0,90,0.00,,BKN001,0.40,VWS V14.00,2013-07-20 03:07:00,
2013-07-19 21:12:00,53.8,50.9,29.90,SW,215,6.0,6.0,90,0.00,,BKN001,0.40,VWS V14.00,2013-07-20 03:12:00,
2013-07-19 21:17:00,53.8,50.6,29.90,South,188,4.0,7.0,89,0.00,,BKN001,0.40,VWS V14.00,2013-07-20 03:17:00,
2013-07-19 21:22:00,53.9,50.7,29.90,SSE,166,3.0,7.0,89,0.00,,BKN001,0.40,VWS V14.00,2013-07-20 03:22:00,
2013-07-19 21:27:00,54.0,50.8,29.90,SSE,150,5.0,7.0,89,0.00,,BKN001,0.40,VWS V14.00,2013-07-20 03:27:00,
2013-07-19 21:32:00,53.9,50.7,29.90,SE,129,6.0,7.0,89,0.00,,BKN001,0.40,VWS V14.00,2013-07-20 03:32:00,
2013-07-19 21:37:00,53.7,50.5,29.90,SE,134,4.0,7.0,89,0.00,,BKN001,0.40,VWS V14.00,2013-07-20 03:37:00,
2013-07-19 21:42:00,53.7,50.5,29.90,SE,128,6.0,8.0,89,0.00,,BKN001,0.40,VWS V14.00,2013-07-20 03:42:00,
2013-07-19 21:47:00,53.7,50.8,29.91,SE,128,8.0,8.0,90,0.00,,BKN001,0.40,VWS V14.00,2013-07-20 03:47:00,
2013-07-19 21:52:00,53.7,50.8,29.91,ESE,122,4.0,8.0,90,0.00,,BKN001,0.40,VWS V14.00,2013-07-20 03:52:00,
2013-07-19 21:57:00,53.6,50.7,29.91,SE,124,5.0,8.0,90,0.00,,BKN001,0.40,VWS V14.00,2013-07-20 03:57:00,
2013-07-19 22:01:00,53.6,50.7,29.91,SE,124,7.0,8.0,90,0.00,,BKN001,0.40,VWS V14.00,2013-07-20 04:01:00,
2013-07-19 22:02:00,53.5,50.6,29.91,SE,124,5.0,8.0,90,0.00,,BKN001,0.40,VWS V14.00,2013-07-20 04:02:00,
2013-07-19 22:07:00,53.4,50.5,29.91,ESE,114,4.0,8.0,90,0.00,,BKN001,0.40,VWS V14.00,2013-07-20 04:07:00,
2013-07-19 22:12:00,53.1,50.2,29.91,ESE,104,5.0,8.0,90,0.00,,BKN001,0.40,VWS V14.00,2013-07-20 04:12:00,
2013-07-19 22:17:00,53.3,50.5,29.91,SE,141,6.0,8.0,90,0.00,,BKN001,0.40,VWS V14.00,2013-07-20 04:17:00,
2013-07-19 22:22:00,53.3,50.2,29.91,SE,131,5.0,8.0,89,0.00,,BKN001,0.40,VWS V14.00,2013-07-20 04:22:00,
2013-07-19 22:27:00,53.2,50.9,29.92,ESE,112,4.0,9.0,92,0.00,,BKN001,0.40,VWS V14.00,2013-07-20 04:27:00,
2013-07-19 22:32:00,53.3,50.2,29.92,SSE,148,5.0,10.0,89,0.00,,BKN001,0.40,VWS V14.00,2013-07-20 04:32:00,
2013-07-19 22:37:00,53.0,50.2,29.91,SSW,199,8.0,9.0,90,0.00,,BKN001,0.40,VWS V14.00,2013-07-20 04:37:00,
2013-07-19 22:42:00,52.8,50.0,29.92,SSW,209,6.0,9.0,90,0.00,,BKN001,0.40,VWS V14.00,2013-07-20 04:42:00,
2013-07-19 22:47:00,52.5,50.0,29.92,SSE,167,3.0,9.0,91,0.00,,BKN001,0.40,VWS V14.00,2013-07-20 04:47:00,
2013-07-19 22:52:00,52.4,49.8,29.92,SSE,160,3.0,9.0,91,0.00,,BKN001,0.40,VWS V14.00,2013-07-20 04:52:00,
2013-07-19 22:57:00,52.6,50.0,29.91,South,173,5.0,9.0,91,0.00,,BKN001,0.40,VWS V14.00,2013-07-20 04:57:00,
2013-07-19 23:02:00,52.5,50.0,29.91,South,173,3.0,9.0,91,0.00,,BKN001,0.40,VWS V14.00,2013-07-20 05:02:00,
2013-07-19 23:07:00,52.4,49.8,29.91,South,173,1.0,2.0,91,0.00,,BKN001,0.40,VWS V14.00,2013-07-20 05:07:00,
2013-07-19 23:12:00,52.6,50.0,29.91,South,173,4.0,5.0,91,0.00,,BKN001,0.40,VWS V14.00,2013-07-20 05:12:00,
2013-07-19 23:17:00,52.9,50.0,29.91,SSW,213,3.0,6.0,90,0.00,,BKN001,0.40,VWS V14.00,2013-07-20 05:17:00,
2013-07-19 23:22:00,52.6,50.0,29.91,WSW,239,6.0,8.0,91,0.00,,BKN001,0.40,VWS V14.00,2013-07-20 05:22:00,
2013-07-19 23:27:00,52.4,49.8,29.92,SSW,212,6.0,9.0,91,0.00,,BKN001,0.40,VWS V14.00,2013-07-20 05:27:00,
2013-07-19 23:32:00,52.5,50.0,29.92,SSW,206,4.0,9.0,91,0.00,,BKN001,0.40,VWS V14.00,2013-07-20 05:32:00,
2013-07-19 23:37:00,52.6,50.0,29.91,SSW,205,6.0,7.0,91,0.00,,BKN001,0.40,VWS V14.00,2013-07-20 05:37:00,
2013-07-19 23:42:00,52.6,50.0,29.92,SW,231,4.0,7.0,91,0.00,,BKN001,0.40,VWS V14.00,2013-07-20 05:42:00,
2013-07-19 23:47:00,52.6,50.0,29.92,SW,219,0.0,7.0,91,0.00,,BKN001,0.40,VWS V14.00,2013-07-20 05:47:00,
2013-07-19 23:52:00,52.4,49.8,29.92,SSW,198,0.0,7.0,91,0.00,,BKN001,0.40,VWS V14.00,2013-07-20 05:52:00,
2013-07-19 23:57:00,52.3,49.8,29.92,SSW,198,0.0,7.0,91,0.00,,BKN001,0.40,VWS V14.00,2013-07-20 05:57:00,